Overview Statistics Trail Chart Weather Telemetry Raw packets
 

This is the latest recevied weather packets stored in our database for station/object AJ1L. If no packets are shown the sender has not sent any weather packets the latest 10 day(s).

<< 26 27 28 29 30 31 >>
Time Temp. Humidity Pressure Rain* Wind** Luminosity Snow
1787779202 25.56° C 67% 1016.7 hPa 0 mm - - -
1787778201 25.56° C 66% 1016.6 hPa 0 mm - - -
1787777203 25° C 68% 1016.6 hPa 0 mm - - -
1787776202 25.56° C 65% 1016.8 hPa 0 mm - - -
1787775202 25.56° C 65% 1016.8 hPa 0 mm - - -
1787774201 26.11° C 61% 1016.8 hPa 0 mm - - -
1787772202 26.11° C 60% 1017 hPa 0 mm - - -
1787770203 27.22° C 59% 1017.2 hPa 0 mm - - -
1787769202 27.22° C 52% 1017.3 hPa 0 mm - - -
1787767202 27.78° C 52% 1017.2 hPa 0 mm - - -
1787766202 28.33° C 52% 1017.3 hPa 0 mm - - -
1787764201 26.67° C 54% 1017.4 hPa 0 mm - - -
1787763201 26.11° C 55% 1017.5 hPa 0 mm - - -
1787762203 26.11° C 55% 1017.5 hPa 0 mm - - -
1787761201 26.11° C 54% 1017.6 hPa 0 mm - - -
1787760202 26.11° C 54% 1017.6 hPa 0 mm - - -
1787759203 26.11° C 55% 1017.6 hPa 0 mm - - -
1787758202 26.11° C 59% 1017.6 hPa 0 mm - - -
1787756205 24.44° C 62% 1017.8 hPa 0 mm - - -
1787755204 23.89° C 63% 1017.8 hPa 0 mm - - -
1787754201 23.33° C 67% 1017.8 hPa 0 mm - - -
1787753204 23.33° C 69% 1017.9 hPa 0 mm - - -
1787752202 22.22° C 72% 1017.8 hPa 0 mm - - -
1787751202 21.67° C 72% 1017.9 hPa 0 mm - - -
1787749201 20.56° C 77% 1017.6 hPa 0 mm - - -

* Rain latest hour (hover to see other rain measurements)
** Current wind speed in m/s (hover to see current wind gust speed)